Location: Unspecified
(64.9000°N, 0.0000°E)
Time: 16:20:13
(UTC+00:00)

Transit 2A Rocket - Pass Details

Date: 23 June 2019
Orbit: 588 x 915 km, 66.7° (Epoch: 16 July)

Event Time Altitude Azimuth Distance (km) Brightness Sun altitude
Rises 13:14:34 0° 256° (WSW) 3,521 8.8 46.9°
Reaches altitude 10° 13:17:09 10° 257° (WSW) 2,555 8.2 46.8°
Maximum altitude 13:23:07 81° 345° (NNW) 863 6.0 46.5°
Drops below altitude 10° 13:28:38 10° 74° (ENE) 2,368 7.3 46.2°
Sets 13:30:57 0° 75° (ENE) 3,247 8.0 46.1°
